Regional Weather Roundup
Issued by NWS

Home | Current Version | Previous Version | Graphics & Text | Print | Product List | Glossary On
Versions: 1 2 3 4 5 6 7 8 9 10 11 12 13 14 15 16 17 18 19 20 21 22 23 24 25 26 27 28 29 30 31 32 33 34 35 36 37 38 39 40 41 42 43 44 45 46 47 48 49
000
ASUS45 KBOU 231610
RWRCO

WEATHER ROUNDUP FOR COLORADO
NATIONAL WEATHER SERVICE PUEBLO CO
1000 AM MDT MON APR 23 2018

NOTE: "FAIR" INDICATES FEW OR NO CLOUDS BELOW 12000 FEET WITH NO
SIGNIFICANT WEATHER AND/OR OBSTRUCTIONS TO VISIBILITY.

COZ001>005-013-030-031-231700-
...NORTHWEST COLORADO...

CITY           SKY/WX    TMP DP  RH WIND       PRES   REMARKS
CRAIG          MOSUNNY   59  36  42 E9        30.09S
HAYDEN         MOSUNNY   54  33  45 E12       30.11F
MEEKER         PTSUNNY   56  35  45 W5        30.11S
RABBIT EARS PA NOT AVBL
STEAMBOAT SPGS FAIR      49  32  52 CALM      30.11F
WALDEN         FAIR      52  28  40 S9        30.18F
$$

COZ006>008-011-231700-
...WEST CENTRAL VALLEYS...

CITY           SKY/WX    TMP DP  RH WIND       PRES   REMARKS
GRAND JUNCTION SUNNY     62  34  35 S5        30.07S
MONTROSE       SUNNY     63  34  33 VRB5      30.13F
EAGLE          SUNNY     50  33  52 CALM      30.19F
RIFLE          MOSUNNY   54  39  57 CALM      30.12F
DELTA          NOT AVBL
NUCLA          NOT AVBL
$$

COZ017>023-064>068-231700-
...SOUTHWEST COLORADO...

CITY           SKY/WX    TMP DP  RH WIND       PRES   REMARKS
DURANGO        SUNNY     58  24  27 E8        30.20F
CORTEZ         SUNNY     63  26  24 VRB3      30.16S
PAGOSA SPRINGS FAIR      56  21  26 SE3       30.26S
TELLURIDE      PTSUNNY   54  22  28 CALM      30.30S
WOLF CREEK PAS SUNNY     36  19  51 S12       30.45S
$$

COZ009-010-012-014-032>034-037-058>063-231700-
...CENTRAL COLORADO...

CITY           SKY/WX    TMP DP  RH WIND       PRES   REMARKS
ASPEN          MOSUNNY   53  30  41 S3        30.18S
BUENA VISTA    FAIR      48  32  53 CALM      30.22F
COPPER MTN     NOT AVBL
BERTHOUD PASS  PTSUNNY   30  21  69 W36G44    30.34S WCI  14
COTTONWOOD PAS MOSUNNY   50  37  62 SE6       30.28S
GUNNISON       MOSUNNY   48  32  53 CALM      30.25F
KREMMLING      MOSUNNY   50  34  53 CALM      30.21F
LEADVILLE      PTSUNNY   44  29  55 CALM      30.27R
MONARCH PASS   MOSUNNY   34  27  75 W18G25    30.48R WCI  23
SALIDA         FAIR      51  36  55 N3        30.27F
SUNLIGHT       MOSUNNY   41  25  52 SW9G23    30.34S
WILKERSON PASS PTSUNNY   37  25  60 W5        30.36R
$$

COZ069>075-231700-
...SAN LUIS VALLEY/SANGRE DE CRISTO MOUNTAINS...

CITY           SKY/WX    TMP DP  RH WIND       PRES   REMARKS
ALAMOSA        SUNNY     51  28  41 CALM      30.22F
DEL NORTE      FAIR      52  26  37 E8        30.24S
LA VETA PASS   SUNNY     46  25  42 S15G28    30.42R
SAGUACHE       NOT AVBL
$$

COZ035-036-038>040-231700-
...NORTHERN COLORADO FRONT RANGE...

CITY           SKY/WX    TMP DP  RH WIND       PRES   REMARKS
DENVER INTL AP PTSUNNY   53  40  61 CALM      30.09S
DMNS CITY PARK NOT AVBL
AURORA         NOT AVBL
FRONT RANGE AP PTSUNNY   57  43  58 NW8       30.10S
ERIE MUNI ARPT FAIR      52  41  64 N5        30.14S
BOULDER MUN AP FAIR      54  39  58 E3        30.08S
CENTENNIAL     PTSUNNY   57  39  51 CALM      30.09S
BROOMFIELD     PTSUNNY   54  41  62 N6        30.10S
LOVELAND       MOSUNNY   50  39  66 VRB3      30.09F
LONGMONT       FAIR      57  40  52 CALM      30.10S
$$

COZ041-046-047-076>085-087-088-231700-
...PIKES PEAK/PALMER DIVIDE AND SOUTHERN FOOTHILLS...

CITY           SKY/WX    TMP DP  RH WIND       PRES   REMARKS
COLO. SPRINGS  MOSUNNY   51  37  58 SW3       30.13S
A. F. ACADEMY  MOSUNNY   53  35  52 S3        30.12S
SCHRIEVER AFB  NOT AVBL
CHEYENNE MTN   NOT AVBL
ELLICOTT         N/A    N/A N/A N/A S8        30.12S
FALCON         FAIR      53  34  49 S5        30.15S
FORT CARSON    MOSUNNY   49  37  61 S3        30.12S
LIMON          SUNNY     51  37  58 SE15      30.12F
MONUMENT HILL  MOSUNNY   61  32  33 W9        30.14S
CANON CITY     FAIR      54  41  62 SE8       30.11S
WALSENBURG     FAIR      61  34  36 CALM      30.12F
TRINIDAD       SUNNY     58  38  47 SE5       30.12F
$$

COZ042>045-048>051-090-091-231700-
...NORTHEAST COLORADO...

CITY           SKY/WX    TMP DP  RH WIND       PRES   REMARKS
GREELEY ARPT   MOSUNNY   49  40  71 VRB3      30.10F
AKRON          SUNNY     55  41  59 S16       30.10S
BURLINGTON     SUNNY     54  40  59 S17       30.15S
WRAY           FAIR      55  37  50 S16       30.14F
YUMA           NOT AVBL
STERLING       NOT AVBL
HOLYOKE        FAIR      59  41  51 S18G24    30.14S
FORT MORGAN    FAIR      53  37  55 E3        30.11R
$$

COZ086-089-092>099-231700-
...SOUTHEAST COLORADO...

CITY           SKY/WX    TMP DP  RH WIND       PRES   REMARKS
PUEBLO         SUNNY     51  36  56 CALM      30.11F
LA JUNTA       SUNNY     53  38  56 E5        30.12F
LAMAR          SUNNY     59  40  49 S16G23    30.12F
SPRINGFIELD      N/A     56  39  53 S22       30.13F
$$





USA.gov is the U.S. government's official web portal to all federal, state and local government web resources and services.